This is the latest recevied weather packets stored in our database for station/object KD7AWQ. If no packets are shown the sender has not sent any weather packets the latest 10 day(s).
| Time | Temp. | Humidity | Pressure | Rain* | Wind** | Luminosity | Snow |
|---|---|---|---|---|---|---|---|
| 1778010211 | 18.33° C | 43% | 1180.4 hPa | 0 mm | - | 246 W/m² | - |
| 1778009906 | 18.89° C | 43% | 1180.5 hPa | 0 mm | - | 1382 W/m² | - |
| 1778009605 | 18.89° C | 44% | 1180.5 hPa | 0 mm | - | 1187 W/m² | - |
| 1778009302 | 18.89° C | 43% | 1180.7 hPa | 0 mm | - | 1237 W/m² | - |
| 1778009000 | 18.89° C | 46% | 1180.9 hPa | 0 mm | - | 1190 W/m² | - |
| 1778008698 | 18.33° C | 51% | 1181.2 hPa | 0 mm | - | 1263 W/m² | - |
| 1778008396 | 17.22° C | 52% | 1181 hPa | 0 mm | - | 1314 W/m² | - |
| 1778008092 | 18.33° C | 50% | 1181.2 hPa | 0 mm | - | 282 W/m² | - |
| 1778007788 | 17.78° C | 51% | 1181.4 hPa | 0 mm | - | 418 W/m² | - |
| 1778007484 | 17.78° C | 52% | 1181.6 hPa | 0 mm | - | 503 W/m² | - |
| 1778007181 | 17.78° C | 53% | 1181.8 hPa | 0 mm | - | 743 W/m² | - |
| 1778006876 | 17.78° C | 54% | 1181.5 hPa | 0 mm | - | 373 W/m² | - |
| 1778006574 | 17.22° C | 55% | 1181.6 hPa | 0 mm | - | 457 W/m² | - |
| 1778006271 | 17.22° C | 58% | 1181.8 hPa | 0 mm | - | 777 W/m² | - |
| 1778005968 | 17.78° C | 55% | 1181.4 hPa | 0 mm | - | 290 W/m² | - |
| 1778005665 | 17.78° C | 52% | 1181.4 hPa | 0 mm | - | 1281 W/m² | - |
| 1778005361 | 17.78° C | 59% | 1181.5 hPa | 0 mm | - | 1280 W/m² | - |
| 1778005058 | 17.78° C | 55% | 1181.6 hPa | 0 mm | - | 919 W/m² | - |
| 1778004756 | 17.78° C | 59% | 1182 hPa | 0 mm | - | 1171 W/m² | - |
| 1778004452 | 17.22° C | 58% | 1181.8 hPa | 0 mm | - | 1114 W/m² | - |
| 1778004148 | 16.67° C | 61% | 1181.9 hPa | 0 mm | - | 1165 W/m² | - |
| 1778003845 | 16.11° C | 66% | 1182 hPa | 0 mm | - | 229 W/m² | - |
| 1778003541 | 15.56° C | 74% | 1182 hPa | 0 mm | - | 283 W/m² | - |
| 1778003238 | 15.56° C | 62% | 1181.9 hPa | 0 mm | - | 95 W/m² | - |
| 1778002935 | 16.11° C | 61% | 1181.9 hPa | 0 mm | - | 224 W/m² | - |
* Rain latest hour (hover to see other rain measurements)
** Current wind speed in m/s (hover to see current wind gust speed)